• In Belarus
  • List of Countries
  • For 7 days
  • Water Temperature
  • Weather Map
  • Weather Widgets
  • user-avatar
    Login

    Hourly Weather Mingachevir

    Today, 4 April, Saturday

    Time Temperature Precipitation Wind Pressure Humidity
    00:00 +10°C° 0 mm 3 mps 752 mmHg 85%
    01:00 +10°C° 0 mm 3 mps 752 mmHg 84%
    02:00 +10°C° 0 mm 2 mps 752 mmHg 83%
    03:00 +10°C° 0 mm 2 mps 752 mmHg 82%
    04:00 +10°C° 0 mm 2 mps 752 mmHg 82%
    05:00 +10°C° 0 mm 2 mps 753 mmHg 82%
    06:00 +10°C° 0 mm 2 mps 753 mmHg 81%
    07:00 +10°C° 0.1 mm 2 mps 753 mmHg 81%
    08:00 +12°C° 0.1 mm 2 mps 753 mmHg 80%
    09:00 +12°C° 0.1 mm 2 mps 754 mmHg 80%
    10:00 +12°C° 1.7 mm 2 mps 754 mmHg 84%
    11:00 +11°C° 1.7 mm 1 mps 754 mmHg 87%
    12:00 +11°C° 1.7 mm 1 mps 754 mmHg 91%
    13:00 +11°C° 2.2 mm 1 mps 754 mmHg 91%
    14:00 +10°C° 2.2 mm 2 mps 754 mmHg 91%
    15:00 +10°C° 2.2 mm 2 mps 755 mmHg 91%
    16:00 +10°C° 0.4 mm 2 mps 755 mmHg 89%
    17:00 +10°C° 0.4 mm 2 mps 755 mmHg 88%
    18:00 +11°C° 0.4 mm 1 mps 756 mmHg 86%
    19:00 +11°C° 0 mm 1 mps 757 mmHg 86%
    20:00 +11°C° 0 mm 1 mps 757 mmHg 86%
    21:00 +11°C° 0 mm 1 mps 758 mmHg 87%
    22:00 +11°C° 0 mm 1 mps 758 mmHg 87%
    23:00 +11°C° 0 mm 1 mps 758 mmHg 87%

    Tomorrow, 5 April, Sunday

    Time Temperature Precipitation Wind Pressure Humidity
    00:00 +10°C° 0 mm 0 mps 759 mmHg 87%
    01:00 +9°C° 0 mm 0 mps 758 mmHg 87%
    02:00 +9°C° 0 mm 0 mps 758 mmHg 88%
    03:00 +9°C° 0 mm 0 mps 758 mmHg 89%
    04:00 +9°C° 0 mm 1 mps 758 mmHg 89%
    05:00 +9°C° 0 mm 1 mps 758 mmHg 89%
    06:00 +9°C° 0 mm 1 mps 759 mmHg 89%
    07:00 +11°C° 0 mm 1 mps 758 mmHg 82%
    08:00 +13°C° 0 mm 2 mps 758 mmHg 76%
    09:00 +14°C° 0 mm 2 mps 758 mmHg 69%
    10:00 +15°C° 0 mm 2 mps 757 mmHg 65%
    11:00 +17°C° 0 mm 2 mps 757 mmHg 61%
    12:00 +18°C° 0 mm 2 mps 757 mmHg 57%
    13:00 +18°C° 0 mm 2 mps 756 mmHg 55%
    14:00 +19°C° 0 mm 2 mps 755 mmHg 53%
    15:00 +21°C° 0 mm 1 mps 755 mmHg 50%
    16:00 +20°C° 0 mm 1 mps 755 mmHg 54%
    17:00 +19°C° 0 mm 1 mps 754 mmHg 57%
    18:00 +19°C° 0 mm 1 mps 754 mmHg 60%
    19:00 +18°C° 0 mm 1 mps 755 mmHg 62%
    20:00 +16°C° 0 mm 1 mps 755 mmHg 65%
    21:00 +14°C° 0 mm 0 mps 755 mmHg 67%
    22:00 +14°C° 0 mm 0 mps 755 mmHg 69%
    23:00 +15°C° 0 mm 1 mps 755 mmHg 70%

    Day after tomorrow, 6 April, Monday

    Time Temperature Precipitation Wind Pressure Humidity
    00:00 +15°C° 0 mm 1 mps 754 mmHg 71%
    01:00 +14°C° 0 mm 1 mps 754 mmHg 74%
    02:00 +13°C° 0 mm 1 mps 754 mmHg 77%
    03:00 +13°C° 0 mm 1 mps 754 mmHg 79%
    04:00 +13°C° 0 mm 1 mps 754 mmHg 80%
    05:00 +13°C° 0 mm 1 mps 754 mmHg 81%
    06:00 +11°C° 0 mm 0 mps 755 mmHg 82%
    07:00 +13°C° 0 mm 1 mps 755 mmHg 78%
    08:00 +14°C° 0 mm 1 mps 755 mmHg 74%
    09:00 +15°C° 0 mm 1 mps 756 mmHg 69%
    10:00 +15°C° 0.1 mm 2 mps 756 mmHg 71%
    11:00 +15°C° 0.1 mm 2 mps 756 mmHg 72%
    12:00 +15°C° 0.1 mm 2 mps 756 mmHg 73%
    13:00 +14°C° 0.4 mm 2 mps 756 mmHg 78%
    14:00 +14°C° 0.4 mm 1 mps 756 mmHg 83%
    15:00 +13°C° 0.4 mm 1 mps 756 mmHg 88%
    16:00 +12°C° 0.7 mm 3 mps 757 mmHg 86%
    17:00 +12°C° 0.7 mm 5 mps 757 mmHg 83%
    18:00 +11°C° 0.7 mm 7 mps 757 mmHg 80%
    19:00 +10°C° 0 mm 8 mps 758 mmHg 78%
    20:00 +7°C° 0 mm 9 mps 759 mmHg 76%
    21:00 +6°C° 0 mm 11 mps 759 mmHg 74%
    22:00 +6°C° 0.1 mm 10 mps 760 mmHg 76%
    23:00 +5°C° 0.1 mm 10 mps 760 mmHg 79%

    7 April, Tuesday

    Time Temperature Precipitation Wind Pressure Humidity
    00:00 +3°C° 0.1 mm 10 mps 760 mmHg 82%
    01:00 +3°C° 0.1 mm 10 mps 761 mmHg 83%
    02:00 +3°C° 0.1 mm 9 mps 761 mmHg 85%
    03:00 +2°C° 0.1 mm 9 mps 761 mmHg 87%
    04:00 +2°C° 0 mm 9 mps 762 mmHg 87%
    05:00 +2°C° 0 mm 9 mps 762 mmHg 87%
    06:00 +2°C° 0 mm 9 mps 763 mmHg 87%
    07:00 +2°C° 0 mm 8 mps 763 mmHg 84%
    08:00 +2°C° 0 mm 8 mps 763 mmHg 81%
    09:00 +4°C° 0 mm 8 mps 764 mmHg 78%
    10:00 +5°C° 0 mm 8 mps 763 mmHg 74%
    11:00 +5°C° 0 mm 8 mps 763 mmHg 69%
    12:00 +6°C° 0 mm 8 mps 763 mmHg 65%
    13:00 +6°C° 0.1 mm 7 mps 763 mmHg 66%
    14:00 +7°C° 0.1 mm 6 mps 763 mmHg 67%
    15:00 +7°C° 0.1 mm 6 mps 763 mmHg 68%
    16:00 +7°C° 0 mm 5 mps 762 mmHg 69%
    17:00 +7°C° 0 mm 5 mps 762 mmHg 70%
    18:00 +7°C° 0 mm 4 mps 762 mmHg 71%
    19:00 +6°C° 0 mm 4 mps 763 mmHg 74%
    20:00 +6°C° 0 mm 4 mps 763 mmHg 77%
    21:00 +5°C° 0 mm 4 mps 764 mmHg 80%
    22:00 +5°C° 0 mm 3 mps 763 mmHg 80%
    23:00 +5°C° 0 mm 3 mps 763 mmHg 81%

    8 April, Wednesday

    Time Temperature Precipitation Wind Pressure Humidity
    00:00 +4°C° 0 mm 3 mps 763 mmHg 81%
    01:00 +4°C° 0 mm 3 mps 763 mmHg 83%
    02:00 +5°C° 0 mm 2 mps 763 mmHg 84%
    03:00 +4°C° 0 mm 2 mps 762 mmHg 86%
    04:00 +4°C° 0 mm 2 mps 762 mmHg 87%
    05:00 +4°C° 0 mm 2 mps 762 mmHg 88%
    06:00 +4°C° 0 mm 2 mps 762 mmHg 88%
    07:00 +5°C° 0 mm 2 mps 762 mmHg 82%
    08:00 +6°C° 0 mm 2 mps 762 mmHg 75%
    09:00 +8°C° 0 mm 3 mps 761 mmHg 69%
    10:00 +8°C° 0 mm 3 mps 761 mmHg 66%
    11:00 +9°C° 0 mm 3 mps 760 mmHg 64%
    12:00 +10°C° 0 mm 3 mps 760 mmHg 61%
    13:00 +10°C° 0 mm 3 mps 759 mmHg 60%
    14:00 +11°C° 0 mm 3 mps 758 mmHg 58%
    15:00 +12°C° 0 mm 3 mps 758 mmHg 57%
    16:00 +11°C° 0 mm 3 mps 757 mmHg 61%
    17:00 +10°C° 0 mm 3 mps 757 mmHg 64%
    18:00 +10°C° 0 mm 3 mps 757 mmHg 68%
    19:00 +9°C° 0 mm 3 mps 757 mmHg 70%
    20:00 +9°C° 0 mm 3 mps 757 mmHg 73%
    21:00 +8°C° 0 mm 2 mps 757 mmHg 76%
    22:00 +8°C° 0 mm 2 mps 756 mmHg 76%
    23:00 +8°C° 0 mm 2 mps 756 mmHg 77%

    9 April, Thursday

    Time Temperature Precipitation Wind Pressure Humidity
    00:00 +8°C° 0 mm 2 mps 755 mmHg 77%
    01:00 +9°C° 0 mm 1 mps 755 mmHg 79%
    02:00 +9°C° 0 mm 1 mps 754 mmHg 82%
    03:00 +8°C° 0 mm 1 mps 753 mmHg 84%
    04:00 +8°C° 0 mm 1 mps 753 mmHg 84%
    05:00 +7°C° 0 mm 0 mps 753 mmHg 85%
    06:00 +7°C° 0 mm 0 mps 752 mmHg 85%
    07:00 +9°C° 0 mm 1 mps 752 mmHg 78%
    08:00 +11°C° 0 mm 1 mps 752 mmHg 72%
    09:00 +12°C° 0 mm 1 mps 752 mmHg 65%
    10:00 +13°C° 0 mm 1 mps 751 mmHg 62%
    11:00 +13°C° 0 mm 1 mps 751 mmHg 59%
    12:00 +14°C° 0 mm 1 mps 750 mmHg 56%
    13:00 +14°C° 0.1 mm 1 mps 750 mmHg 57%
    14:00 +14°C° 0.1 mm 2 mps 750 mmHg 58%
    15:00 +14°C° 0.1 mm 2 mps 749 mmHg 59%
    16:00 +13°C° 0 mm 3 mps 750 mmHg 64%
    17:00 +12°C° 0 mm 3 mps 750 mmHg 69%
    18:00 +11°C° 0 mm 4 mps 750 mmHg 74%
    19:00 +11°C° 0.1 mm 4 mps 751 mmHg 77%
    20:00 +10°C° 0.1 mm 4 mps 751 mmHg 81%
    21:00 +10°C° 0.1 mm 4 mps 751 mmHg 84%
    22:00 +10°C° 0.4 mm 3 mps 752 mmHg 87%
    23:00 +9°C° 0.4 mm 3 mps 752 mmHg 90%
    Show more